Location: Hilton Head Island
(32.2163°N, 80.7526°W)
Time: 22:55:33
(UTC-04:00)

Transit 2A Rocket - Pass Details

Date: 15 February 2026
Orbit: 583 x 900 km, 66.7° (Epoch: 8 March)

Event Time Altitude Azimuth Distance (km) Brightness Sun altitude
Rises 15:48:41 0° 186° (S) 3,404 8.9 26.0°
Reaches altitude 10° 15:51:12 10° 180° (S) 2,504 8.3 25.6°
Maximum altitude 15:56:44 44° 110° (ESE) 1,211 6.1 24.7°
Drops below altitude 10° 16:02:25 10° 40° (NE) 2,577 7.3 23.7°
Sets 16:05:02 0° 34° (NE) 3,513 7.9 23.2°
